| Shipment Reliability and Frequency | Volume of Goods |
|---|---|
| Avg. Shipments per Month: 5.83 | Average TEU per month: 10.55 |
| Active Months: 6 | Average TEU per Shipment: 1.81 |
| Shipment Frequency Std. Dev.: 7.17 |
| HS Code | Shipments |
|---|---|
| 710410.0 Synthetic, reconstructed precious, semi-precious stone worked, graded or not, not strung or mounted, set; ungraded synthetic, reconstructed precious, semi-precious stones, temporarily strung for transport | 48 shipments |
| 482020.0 Registers, account books, diaries and similar; albums for samples or collections, of paper or paperboard | 6 shipments |
| 441029.0 Particle board, oriented strand board (OSB) and similar board (e.g. waferboard) of wood or other ligneous materials, whether or not agglomerated with resins or other organic binding substances | 4 shipments |
| 950430.0 Video game consoles and machines, articles for funfair, table or parlour games, including pintables, billiards, special tables for casino games and automatic bowling alley equipment | 4 shipments |
| 844090.0 Book-binding machinery; including book-sewing machines | 2 shipments |
| 847930.0 Machinery and mechanical appliances; having individual functions, n.e.c. in this chapter | 2 shipments |
| 290715.0 Phenols; monophenols, polyphenols, and phenol-alcohols | 1 shipments |
| 482090.0 Registers, account books, diaries and similar; albums for samples or collections, of paper or paperboard | 1 shipments |
| 821220.0 Razors and razor blades; (including razor blade blanks in strips) | 1 shipments |
| Arrival Date | Bill Of Lading | Consignee | Weight | HS Code | Description |
|---|---|---|---|---|---|
| 2026-03-30 | SFSKMF26010079 | ADAM POOTS GAMES LLC | 25502.0 kg | 710410.0 | BOARD GAME SET BOARD GAME SET |
| 2026-03-30 | CHKMSH26022392 | DEVIR AMERICAS LLC | 3492.0 kg | 950430.0 | BOARD GAMES |
| 2026-03-27 | CHKMSH26008839 | ADAM POOTS GAMES LLC | 596.0 kg | 710410.0 | BOARD GAME SET . . . |
| 2026-03-27 | CHKMSH26015906 | ADAM POOTS GAMES LLC | 2248.0 kg | 710410.0 | BOARD GAME SET |
| 2026-03-24 | CHKMSH26040666 | THUNDERWORKS GAMES LLC | 6941.0 kg | 710410.0 | BOARD GAME SET CTNS= PLTS |
| 2026-03-24 | SCQHNGBSF3000014 | CROSS INTERNATIONAL TRADE INC | 4022.0 kg | 441029.0 | BOARD GAME |
| 2026-03-18 | CHKMSH26015518 | CATION ARTS | 670.0 kg | 710410.0 | BOARD GAME SET |
| 2026-03-17 | CHKMSH26010084 | DEVIR AMERICAS LLC | 1554.0 kg | 441029.0 | BOARD GAME HS:.. + CIUDAD DE MEXICO TEL:+ |
| 2026-03-16 | NKILNBJJ26020174 | RADEWAVE ENTERPRISES INC | 12590.0 kg | 821220.0 | WIPER BLADE |
| 2026-03-15 | SHNLSLSH26020241 | CHAOSIUM INC | 19056.0 kg | 710410.0 | BOARD GAME SET |
| 2026-03-14 | SFSKMF25120026 | ADAM POOTS GAMES LLC | 2534.0 kg | 290715.0 | - WARMING RACK B SS REV A - WARMING RACK B SS REV A PO# -H - GRID-SIDE BURNER B BLK PO R EV F PO#-H INVOICE NO LA |
| 2026-03-13 | LSKHSHL25254163 | PUBLISHER SERVICES INC | 4320.0 kg | 710410.0 | BOARD GAME SET |
| 2026-03-08 | RSLCSHAL2602041A | OPEN DESIGN LLC | 140.0 kg | 710410.0 | BOARD GAME SET |
| 2026-03-08 | SIXLHSH26020413 | JORDAN CORSAUT | 949.0 kg | 710410.0 | BOARD GAME SET |
| 2026-03-08 | FFCG262SHLOOA002 | TRICK OR TREAT STUDIOS LLC | 2702.0 kg | 710410.0 | BOARD GAME SET |
| 2026-03-07 | SGUNSHA260200074 | BRIDGE DISTRIBUTION | 361.0 kg | 710410.0 | BOARD GAME SET & PLUSH TOYS |
| 2026-03-07 | SHPT22143120 | SON OF OAK GAME STUDIO LLC | 8176.0 kg | 844090.0 | GAME BOOK |
| 2026-03-01 | SQHNSHZG26010958 | BOARD AND DICE SP Z O O | 8037.0 kg | 710410.0 | BOARD GAME SET |
| 2026-02-27 | SHPT83515081 | MEGA MINT GAMES LLC | 928.0 kg | 710410.0 | BOARD GAME SET |
| 2026-02-22 | LSKHSHL26259536 | 902A LLC | 1716.0 kg | 710410.0 | BOARD GAME SET |
| 2026-02-12 | SGUNSHA251201163 | METAL KING STUDIO LLC | 1305.0 kg | 710410.0 | BOARD GAME SET |
| 2026-02-12 | FLXT00003554673A | TEETURTLE LLC | 3000.0 kg | 710410.0 | BOARD GAME SET |
| 2026-02-05 | NAQAGNYC5485804V | PASADENA INTERNATIONAL TRADE INC | 2977.0 kg | 710410.0 | BOARD GAME SET |
| 2026-01-18 | NAQAGSEA5483584V | ZEPHYR WORKSHOP LLC | 270.0 kg | 844090.0 | COMPANION BOOK DICE PACK |
| 2026-01-18 | SGUNSHA251201153 | BRAINFRUIT STUDIO | 365.0 kg | 441029.0 | BOARD GAME |
| 2026-01-17 | FLXT00003482325A | TEETURTLE LLC | 2036.0 kg | 710410.0 | BOARD GAME SET |
| 2026-01-13 | PEVHNBUC25120680 | WHALEBACKER LLC | 459.0 kg | 950430.0 | BOARD GAMES MUG |
| 2026-01-10 | AMZDCN25GQCHU7C4 | CHARTY PARTY LLC | 2622.0 kg | 710410.0 | BOARD GAME SET |
| 2026-01-07 | FFCG25CSHLOOA002 | TRICK OR TREAT STUDIOS INC | 15265.0 kg | 710410.0 | BOARD GAME SET BOARD GAME SET |
| 2025-12-30 | FLXT00003482324A | TEETURTLE LLC | 1185.0 kg | 710410.0 | BOARD GAME SET |
| 2025-12-24 | LSKHSHL25244818 | BRIDGE DISTRIBUTION | 600.0 kg | 710410.0 | BOARD GAME SET |
| 2025-12-22 | RSLCSHAF2511115A | THUNDERWORKS GAMES | 10288.0 kg | 847930.0 | BOARD GAME SET BOARD GAME,BOOK THIS SHIPMENT CONTAINS NO WOOD PACKAGING MATERIALS |
| 2025-12-15 | GFSHSHA51011419 | SEMPER SMART GAMES LLC | 6973.0 kg | 710410.0 | BOARD GAME SET |
| 2025-12-15 | LSKHSHL25242071 | PUBLISHER SERVICES INC | 1781.0 kg | 710410.0 | BOARD GAME SET |
| 2025-12-15 | AMIGL250515512A | COVERED WAGON GAMES | 3226.0 kg | 710410.0 | BOARD GAME SET |
| 2025-12-04 | SGUNSHA251101056 | OCTAGION GAMES | 2000.0 kg | 710410.0 | BOARD GAME SET |
| 2025-12-04 | LSKHSHL25242814 | 902A LLC | 2937.0 kg | 482020.0 | HARDCOVER BOOKS |
| 2025-12-02 | FLXT00003432568A | TEETURTLE LLC | 12609.0 kg | 710410.0 | BOARD GAME SET |
| 2025-12-02 | FLXT00003430248A | TEETURTLE LLC | 3425.0 kg | 710410.0 | BOARD GAME SET |
| 2025-12-02 | PEVHSGL25110273 | PARK CITY PUBLISHING | 5020.0 kg | 710410.0 | BOARD GAME SET |
| 2025-11-29 | SIFJS25110044 | WHALEBACKER LLC | 43273.0 kg | 950430.0 | BOARD GAMES BOARD GAMES BOARD GAMES |
| 2025-11-26 | BWLESHA59174999 | CHARTY PARTY LLC | 3269.0 kg | 710410.0 | BOARD GAME SET |
| 2025-11-26 | SHPT83448937 | ARK TRANSPORTATION | 1615.0 kg | 710410.0 | BOARD GAME SET |
| 2025-11-26 | RSLCSHAL2511024C | BEADLE GRIMM S LLC | 1153.0 kg | 482020.0 | BOOKS |
| 2025-11-23 | LSKHSHL25238703 | PLATFORMS LLC | 1726.0 kg | BOOKLET | |
| 2025-11-23 | SIFJS25110045 | WHALEBACKER LLC | 56718.0 kg | 482020.0 | HARDCOVER BOOKS HARDCOVER BOOKS HARDCOVER BOOKS |
| 2025-11-18 | SHPT29760540 | WHALEBACKER LLC | 6294.0 kg | 482020.0 | BOOKS |
| 2025-11-18 | SHPT29760553 | WHALEBACKER LLC | 2421.0 kg | 950430.0 | BOARD GAMES |
| 2025-11-14 | PLKQSH25095034 | GILMORE S GLORIOUS GOODS LLC | 82918.0 kg | 482020.0 | BOOKS BOOKS BOOKS BOOKS BOOKS BOOKS BOOKS BOOKS |
| 2025-11-14 | RSLCSHAL2510054B | OPEN DESIGN LLC | 677.0 kg | 710410.0 | BOARD GAME SET |